Home   Weather   USA   Davenport   Past weeks
Flag for USA

Past Weather in Davenport, Iowa, USA — February 2021

Currently: 47 °F. Light rain. Low clouds. (Weather station: Davenport Municipal Airport, USA). See more current weather

February 2021 Weather in Davenport — Graph

°F

High & Low Weather Summary for February 2021

 TemperatureHumidityPressure
High44 °F (Feb 23, 2:52 pm)96% (Feb 4, 12:35 pm)30.68 "Hg (Feb 4, 12:35 pm)
Low-18 °F (Feb 7, 5:52 am)51% (Feb 26, 11:52 am)29.38 "Hg (Feb 4, 1:35 pm)
Average15 °F75%30.20 "Hg
* Reported Feb 1 12:52 am — Feb 28 11:52 pm, Davenport. Weather by CustomWeather, © 2021

Note: Actual official high and low records may vary slightly from our data, if they occured in-between our weather recording intervals... More about our weather records

Davenport Weather History for February 1, 2021

Scroll right to see more
 ConditionsComfort  
Time TempWeatherWind HumidityBarometerVisibility
12:52 am
Mon, Feb 1
30 °FOvercast.16 mph79%30.25 "Hg10 mi
1:52 am30 °FOvercast.14 mph82%30.25 "Hg10 mi
2:52 am29 °FOvercast.10 mph82%30.25 "Hg10 mi
3:33 am28 °FPassing clouds.10 mph81%30.24 "Hg10 mi
3:52 am27 °FPassing clouds.10 mph81%30.27 "Hg10 mi
4:07 am27 °FPassing clouds.10 mph81%30.25 "Hg10 mi
4:31 am27 °FPassing clouds.9 mph81%30.26 "Hg10 mi
4:52 am27 °FOvercast.9 mph85%30.28 "Hg10 mi
5:52 am30 °FOvercast.13 mph82%30.29 "Hg10 mi
6:52 am30 °FOvercast.12 mph79%30.30 "Hg10 mi
7:52 am30 °FOvercast.15 mph82%30.32 "Hg5 mi
8:52 am29 °FIce fog.16 mph85%30.33 "Hg5 mi
9:52 am30 °FOvercast.13 mph82%30.34 "Hg6 mi
10:44 am30 °FMostly cloudy.12 mph82%30.33 "Hg6 mi
10:52 am30 °FMostly cloudy.12 mph82%30.34 "Hg6 mi
11:17 am30 °FMostly cloudy.13 mph82%30.32 "Hg6 mi
11:52 am31 °FOvercast.14 mph79%30.32 "Hg7 mi
12:52 pm31 °FOvercast.15 mph79%30.30 "Hg7 mi
1:52 pm30 °FOvercast.13 mph82%30.30 "Hg7 mi
2:52 pm31 °FOvercast.N/A82%30.30 "Hg7 mi
3:52 pm30 °FOvercast.14 mph82%30.31 "Hg7 mi
4:52 pm30 °FMore clouds than sun.13 mph79%30.32 "Hg8 mi
5:27 pm30 °FMostly cloudy.13 mph79%30.31 "Hg8 mi
5:52 pm30 °FOvercast.12 mph79%30.33 "Hg9 mi
6:52 pm29 °FOvercast.14 mph82%30.34 "Hg8 mi
7:52 pm28 °FOvercast.12 mph81%30.34 "Hg9 mi
8:52 pm25 °FOvercast.13 mph81%30.34 "Hg10 mi
9:52 pm25 °FOvercast.9 mph81%30.34 "Hg10 mi
10:52 pm24 °FOvercast.10 mph81%30.35 "Hg9 mi
11:52 pm20 °FPassing clouds.9 mph85%30.36 "Hg9 mi
Weather by CustomWeather, © 2021

See weather overview